User: anonymous
Location: Bridgewater
(44.3670°N, 64.5170°W)
Time: 08:58:42
(UTC-03:00)
Language:

OPAL - Orbit

View from above orbital plane
View from above orbital plane
View from above satellite
View from above satellite

Ground track
Ground track

The orbit data is extracted from the following two-line orbital elements,

1 26063U 00004C   14261.49983130  .00000153  00000-0  72003-4 0   583
2 26063 100.2238 064.7672 0036047 254.6056 105.1140 14.36397875767415
Epoch (UTC): 18 September 2014 11:59:45
Eccentricity: 0.0036047
inclination: 100.2238°
perigee height: 744 km
apogee height: 796 km
right ascension of ascending node: 64.7672°
argument of perigee: 254.6056°
revolutions per day: 14.36397875
mean anomaly at epoch: 105.1140°
orbit number at epoch: 76741

The dashed part of the orbit path shows where the satellite is in the earth's shadow,  

DLR